Dati Storici

Data ora Umidita' aria (%) Temperatura aria (°C) Rad globale (W/m²) Gonioanemometro (°) Tacoanemometro (m/s) Pioggia (mm)
08-06-2020 02:50 97.9 % 16.558 -75.933 2.038 0 0
08-06-2020 02:40 97.8 % 16.52 -79.441 0.803 0 0
08-06-2020 02:30 97.8 % 16.435 -82.464 2.104 0 0
08-06-2020 02:20 97.8 % 16.547 -83.007 0.882 0 0
08-06-2020 02:10 97.9 % 16.492 -80.379 0.911 0 0
08-06-2020 02:00 97.8 % 16.39 -75.416 1.908 0 0
08-06-2020 01:50 97.9 % 16.424 -80.513 2.219 0 0
08-06-2020 01:40 97.9 % 16.413 -23.51 1.558 0 0
08-06-2020 01:30 97.9 % 16.347 -36.356 1.224 0 0
08-06-2020 01:20 97.9 % 16.275 -76.877 1.49 0 0
08-06-2020 01:10 97.9 % 16.222 -80.764 2.129 0 0
08-06-2020 01:00 97.9 % 16.253 -75.567 1.343 0 0
08-06-2020 00:50 97.9 % 16.335 -72.397 1.708 0 0
08-06-2020 00:40 97.8 % 16.375 -77.403 0.523 0 0
08-06-2020 00:30 97.9 % 16.437 -80.195 1.892 0 0
08-06-2020 00:20 97.8 % 16.356 -44.872 1.297 0 0
08-06-2020 00:10 97.8 % 16.269 -77.271 1.378 0 0
08-06-2020 00:00 97.8 % 16.315 -75.397 0.318 0 0
07-06-2020 23:50 97.8 % 16.345 -75.88 1.1 0 0
07-06-2020 23:40 97.8 % 16.287 -74.206 1.369 0 0

I dati sono presentati in modo automatico a scopo informativo. In seguito a verifica i dati possono subire modifiche o essere invalidati e non riportati negli archivi definitivi.